SCP
0 0 0 0 -0 -0 0 0 0 0 0 0 -0 0 0 0 -0 0 0 0 -0 -0 -0 -0 0 0 0 0 0 0 0 0 0 0 0 0 0 0
-0 0 -0 -0 0 -0 -0 0 0 0 0 0 0 0 0 -0 -0 -0 -0 0 -0 -0 -0 -0 0 0 0 0 0 0 0 0 0 0 0 0 0 0
-0 0 -0 -0 -0 0 0 0 0 0 -0 -0 0 -0 -0 -0 -0 0 -0 -0 -0 -0 -0 -0 0 0 0 0 0 0 0 0 0 0 0 0 0 0
0 -0 0 0 -0 -0 -0 -0 -0 -0 -0 -0 -0 -0 -0 -0 -0 0 0 0 -0 -0 -0 0 0 0 0 0 0 0 0 0 0 0 0 0 0 0
0 0 0 0 -0 -0 -0 -0 -0 0 0 0 -0 0 0 -0 -0 -0 0 1 0 -0 0 0 0 0 0 0 0 0 0 0 0 0 0 0 0 0
0 0 0 0 0 0 0 -0 -0 -0 -0 -0 0 0 0 0 0 1 0 0 0 0 0 0 0 0 0 0 0 0 0 0 0 0 0 0 0 0
-0 0 0 0 0 0 1 0 1 0 0 0 0 -0 0 0 0 -0 -0 -0 -0 -0 -0 0 0 0 0 0 0 0 0 0 0 0 0 0 0 0
0 0 -0 -0 0 0 0 0 0 1 0 0 -0 -0 -0 -0 -0 -0 -0 -0 -0 0 0 -0 -0 -0 0 0 0 0 0 0 0 0 0 0 0 0
1 0 0 0 0 1 0 0 0 0 0 0 0 0 0 0 0 0 0 0 0 0 0 0 1 0 1 0 0 0 0 0 0 0 0 0 0 0
1 1 1 0 -0 1 1 1 0 0 0 0 0 0 0 0 1 1 1 1 0 1 1 1 1 1 1 0 0 0 0 0 0 0 0 0 0 0
1 1 2 2 1 0 1 1 1 1 1 0 0 0 0 0 0 1 1 0 0 0 0 -0 -0 -0 0 0 0 0 0 0 0 0 0 0 0 0
1 1 1 1 1 2 1 1 1 1 2 2 1 0 0 0 0 0 1 1 1 0 0 0 0 -0 -0 1 0 0 0 0 0 0 0 0 0 0
1 1 1 1 1 0 0 3 2 2 2 2 1 1 1 1 1 1 1 0 0 0 1 0 1 1 0 0 1 0 0 0 0 0 0 0 0 0
1 1 1 0 0 0 0 0 0 1 2 2 1 1 1 1 1 1 1 1 1 1 1 2 2 2 2 1 0 1 1 0 0 0 0 0 0 0
1 1 0 0 -0 -0 -0 0 0 0 1 1 1 1 1 1 1 1 1 3 1 1 2 2 2 2 2 1 1 1 1 1 0 0 0 0 0 0
0 0 0 0 0 0 0 0 0 0 0 1 1 1 1 1 1 1 0 0 3 3 2 2 3 2 2 2 2 1 1 1 2 2 1 0 0 0
0 0 0 1 1 1 1 1 2 0 0 1 1 2 2 2 1 1 1 0 1 1 1 3 3 3 3 3 3 2 2 2 1 3 3 2 0 0
0 0 0 0 1 1 1 1 1 1 2 2 2 2 2 2 1 1 1 0 0 1 1 1 2 5 4 3 3 2 2 2 2 3 4 3 2 1
0 0 0 1 1 1 2 2 2 2 2 2 3 2 3 3 1 1 0 1 1 1 1 1 1 2 1 1 2 1 2 2 2 2 2 3 2 2
0 0 0 0 1 2 2 2 2 2 2 2 1 1 1 1 3 2 1 1 1 1 1 1 1 1 1 1 2 2 0 2 2 2 3 3 2 0
0 0 0 0 1 1 1 1 1 2 1 1 1 1 1 1 1 1 1 1 1 1 1 1 1 3 4 3 2 1 1 0 1 2 2 2 2 1
0 0 0 0 0 1 1 1 1 1 1 1 1 1 1 1 1 0 1 1 1 1 2 2 1 1 1 1 0 1 1 1 0 0 0 0 2 2
0 0 0 0 0 0 0 0 0 0 0 0 0 0 0 0 0 -0 0 0 0 1 1 1 1 0 1 1 1 1 1 1 1 1 1 0 0 0
Wind_Speed_500mb
24 34 17 8 3 9 9 13 19 25 20 11 6 15 19 18 31 38 37 42 33 32 40 49 54 54 58 47 38 38 37 40 42 46 43 42 36 22
21 27 30 26 8 3 17 12 16 19 26 25 17 15 19 29 38 40 41 37 26 34 41 46 51 52 56 51 46 43 43 44 47 46 46 45 33 23
27 24 29 33 32 13 16 22 21 24 31 35 31 32 35 39 43 43 44 36 32 30 35 44 50 49 54 54 49 47 45 45 50 46 46 43 34 28
29 33 27 27 31 39 29 26 27 23 28 38 47 53 43 27 35 38 41 36 33 29 32 43 45 46 54 51 48 48 47 46 49 47 44 40 31 25
22 22 23 27 32 33 27 32 29 26 32 32 36 33 38 33 30 28 37 31 30 32 34 36 42 41 52 50 44 45 53 47 48 47 43 40 29 21
31 25 26 28 28 30 31 33 39 40 42 42 39 36 36 29 37 32 29 31 30 31 31 37 31 43 43 46 42 46 56 46 46 46 41 38 32 19
39 37 36 35 35 37 39 34 30 30 36 29 40 36 26 20 27 34 39 42 41 41 34 36 38 38 39 44 42 46 55 46 48 46 42 34 32 20
45 44 47 42 37 40 48 46 42 44 45 44 45 46 43 41 43 45 45 51 58 41 42 44 25 20 37 46 32 47 50 51 51 45 45 33 30 26
52 50 49 46 40 48 44 39 38 42 50 50 54 49 46 40 44 50 49 49 51 50 36 39 29 30 29 38 43 46 44 49 52 47 40 38 30 26
58 52 56 56 51 49 42 53 52 50 51 53 57 52 44 38 39 42 46 49 56 55 41 55 49 44 35 37 42 46 41 46 49 49 40 36 31 24
72 70 70 69 64 54 58 62 55 59 60 56 48 52 51 47 46 48 54 58 66 67 56 43 41 42 39 41 45 46 46 44 44 46 44 36 30 26
76 78 75 74 76 74 62 71 76 79 76 76 69 64 62 65 62 53 57 62 61 67 47 40 43 44 49 44 42 41 43 48 47 43 43 36 28 26
70 64 67 69 66 63 68 84 93 89 86 83 82 78 75 74 69 60 51 54 57 61 55 46 40 45 47 45 40 40 45 47 44 47 43 45 29 26
69 73 61 53 69 74 68 70 72 70 73 79 78 78 73 68 58 57 59 62 63 66 55 53 56 57 65 67 65 55 45 44 48 52 51 46 38 31
71 74 74 76 76 66 62 56 73 83 82 86 89 87 86 85 81 76 76 76 79 70 67 62 58 49 45 45 47 43 41 50 52 59 50 48 47 33
55 71 74 75 76 82 93 93 92 85 82 91 95 95 91 90 89 85 74 70 73 76 72 66 56 48 54 54 53 56 49 47 49 47 53 55 62 54
51 69 59 56 62 66 71 83 99 105 102 100 98 98 95 88 85 76 65 66 68 67 65 62 58 52 56 53 55 56 56 51 40 48 53 61 68 63
49 52 62 72 69 72 70 74 70 74 90 87 89 92 88 83 69 72 64 63 68 71 69 65 63 62 60 61 57 59 57 56 48 49 55 59 64 61
56 59 59 57 68 81 85 72 74 72 73 73 81 71 72 78 62 61 65 61 63 66 69 68 68 63 62 69 52 36 44 51 55 59 52 64 70 65
57 55 53 63 66 63 77 81 79 79 68 67 70 68 80 92 65 61 60 57 60 66 69 64 58 58 61 67 62 64 58 58 56 57 58 57 55 58
49 51 56 53 57 61 70 75 77 84 84 76 71 64 65 73 82 91 86 76 66 63 60 63 58 60 55 52 57 67 67 52 46 55 52 57 61 62
58 59 59 57 52 59 65 74 77 79 81 68 66 75 72 63 60 63 78 79 75 65 68 65 65 57 53 57 68 66 59 52 52 51 54 59 66 65
63 64 64 63 66 63 65 64 71 78 81 73 70 77 74 59 70 84 97 77 60 70 61 58 63 61 55 51 53 58 59 52 47 48 49 44 45 55
Wind_Direction_500mb
226 222 222 205 223 259 313 309 328 327 347 261 287 258 265 269 307 309 310 324 337 341 338 341 351 357 357 360 6 5 0 354 350 344 344 342 337 320
217 220 231 241 271 257 244 277 291 300 304 307 320 338 309 308 311 317 318 319 338 341 331 342 345 355 355 0 6 2 360 360 356 352 352 354 359 9
210 227 225 247 245 218 241 245 262 279 282 282 282 283 291 300 310 321 327 331 335 335 340 341 338 346 346 352 355 0 2 2 1 357 357 2 6 16
225 232 235 248 246 245 247 249 248 255 283 286 276 281 293 307 307 305 323 337 351 343 336 332 330 335 338 342 344 356 357 1 2 1 1 7 8 17
265 248 248 243 247 252 244 251 254 266 270 281 289 293 289 289 292 299 318 324 329 329 321 322 319 325 332 334 335 347 354 355 4 2 2 7 10 11
244 250 252 258 263 269 268 261 250 251 259 263 274 290 300 316 302 292 291 292 318 314 310 318 324 312 316 322 327 342 350 349 356 3 2 4 10 12
228 239 249 257 260 265 271 274 268 261 272 269 281 283 300 286 301 300 300 298 292 297 298 291 292 309 323 320 321 333 340 347 349 357 2 1 7 10
242 240 236 245 252 254 263 272 255 255 258 259 266 273 273 279 286 293 295 298 303 314 307 311 319 316 318 323 307 321 327 338 344 348 358 0 4 4
250 250 252 249 257 263 273 274 268 258 260 267 269 274 281 289 295 297 298 298 298 306 314 313 328 309 302 324 317 308 314 324 335 341 346 354 360 358
243 251 253 251 243 254 266 264 269 272 268 267 272 281 285 295 297 300 301 299 299 302 311 300 315 312 317 298 308 313 311 321 327 336 336 339 349 350
250 248 250 254 258 255 255 259 263 268 276 281 279 284 289 288 287 290 288 294 295 295 294 288 287 302 299 294 301 306 303 309 313 325 332 325 331 341
255 256 258 256 256 254 255 259 260 262 265 268 269 270 275 279 282 281 283 284 289 296 308 293 281 287 299 291 294 298 306 304 306 316 325 324 315 326
252 255 261 267 270 268 263 259 262 271 272 274 275 275 275 277 278 277 276 274 275 281 300 298 297 280 278 285 288 298 301 301 298 304 310 324 309 307
261 258 248 258 262 268 273 272 272 271 269 269 269 269 265 264 269 273 276 278 280 283 288 279 278 283 288 282 278 284 292 285 290 298 299 307 314 295
264 265 265 257 248 250 254 263 263 262 263 262 263 267 270 273 275 271 261 261 268 273 273 277 282 290 287 284 290 296 285 279 284 282 286 301 306 301
257 258 255 257 258 252 251 256 258 257 254 256 259 263 267 268 268 272 269 264 257 262 267 270 271 278 279 277 279 283 286 271 268 270 283 290 291 291
273 267 275 264 260 263 261 257 256 260 259 260 262 264 266 267 265 263 257 250 253 257 259 262 265 267 273 274 273 277 281 276 271 264 266 274 281 283
284 279 275 276 269 263 268 272 269 263 256 260 265 267 268 268 273 258 252 248 249 252 256 259 259 260 266 267 269 275 278 276 276 272 263 266 271 275
285 281 280 286 281 272 267 261 258 257 262 259 252 259 265 267 268 267 250 245 248 253 257 258 257 255 255 260 271 272 279 284 281 276 273 259 259 265
281 288 294 280 287 278 268 267 269 266 260 263 263 276 245 264 252 253 256 253 252 253 255 257 257 258 254 258 258 266 269 275 272 273 265 269 272 269
283 290 294 293 281 278 273 271 273 270 267 269 274 265 245 249 257 264 261 254 253 251 252 256 256 254 248 250 259 272 279 283 282 267 269 262 266 268
292 288 292 287 277 279 279 274 275 270 268 273 284 282 272 271 277 279 281 274 252 249 245 247 248 257 261 271 282 282 284 280 282 277 270 265 266 265
291 291 288 289 286 277 270 278 277 275 262 260 278 292 290 285 291 285 279 332 284 245 250 254 262 267 272 273 276 285 286 287 289 285 281 281 278 268
Wind_Speed_850mb
24 34 17 8 3 9 9 13 19 25 20 11 6 15 19 18 31 38 37 42 33 32 40 49 54 54 58 47 38 38 37 40 42 46 43 42 36 22
21 27 30 26 8 3 17 12 16 19 26 25 17 15 19 29 38 40 41 37 26 34 41 46 51 52 56 51 46 43 43 44 47 46 46 45 33 23
27 24 29 33 32 13 16 22 21 24 31 35 31 32 35 39 43 43 44 36 32 30 35 44 50 49 54 54 49 47 45 45 50 46 46 43 34 28
29 33 27 27 31 39 29 26 27 23 28 38 47 53 43 27 35 38 41 36 33 29 32 43 45 46 54 51 48 48 47 46 49 47 44 40 31 25
22 22 23 27 32 33 27 32 29 26 32 32 36 33 38 33 30 28 37 31 30 32 34 36 42 41 52 50 44 45 53 47 48 47 43 40 29 21
31 25 26 28 28 30 31 33 39 40 42 42 39 36 36 29 37 32 29 31 30 31 31 37 31 43 43 46 42 46 56 46 46 46 41 38 32 19
39 37 36 35 35 37 39 34 30 30 36 29 40 36 26 20 27 34 39 42 41 41 34 36 38 38 39 44 42 46 55 46 48 46 42 34 32 20
45 44 47 42 37 40 48 46 42 44 45 44 45 46 43 41 43 45 45 51 58 41 42 44 25 20 37 46 32 47 50 51 51 45 45 33 30 26
52 50 49 46 40 48 44 39 38 42 50 50 54 49 46 40 44 50 49 49 51 50 36 39 29 30 29 38 43 46 44 49 52 47 40 38 30 26
58 52 56 56 51 49 42 53 52 50 51 53 57 52 44 38 39 42 46 49 56 55 41 55 49 44 35 37 42 46 41 46 49 49 40 36 31 24
72 70 70 69 64 54 58 62 55 59 60 56 48 52 51 47 46 48 54 58 66 67 56 43 41 42 39 41 45 46 46 44 44 46 44 36 30 26
76 78 75 74 76 74 62 71 76 79 76 76 69 64 62 65 62 53 57 62 61 67 47 40 43 44 49 44 42 41 43 48 47 43 43 36 28 26
70 64 67 69 66 63 68 84 93 89 86 83 82 78 75 74 69 60 51 54 57 61 55 46 40 45 47 45 40 40 45 47 44 47 43 45 29 26
69 73 61 53 69 74 68 70 72 70 73 79 78 78 73 68 58 57 59 62 63 66 55 53 56 57 65 67 65 55 45 44 48 52 51 46 38 31
71 74 74 76 76 66 62 56 73 83 82 86 89 87 86 85 81 76 76 76 79 70 67 62 58 49 45 45 47 43 41 50 52 59 50 48 47 33
55 71 74 75 76 82 93 93 92 85 82 91 95 95 91 90 89 85 74 70 73 76 72 66 56 48 54 54 53 56 49 47 49 47 53 55 62 54
51 69 59 56 62 66 71 83 99 105 102 100 98 98 95 88 85 76 65 66 68 67 65 62 58 52 56 53 55 56 56 51 40 48 53 61 68 63
49 52 62 72 69 72 70 74 70 74 90 87 89 92 88 83 69 72 64 63 68 71 69 65 63 62 60 61 57 59 57 56 48 49 55 59 64 61
56 59 59 57 68 81 85 72 74 72 73 73 81 71 72 78 62 61 65 61 63 66 69 68 68 63 62 69 52 36 44 51 55 59 52 64 70 65
57 55 53 63 66 63 77 81 79 79 68 67 70 68 80 92 65 61 60 57 60 66 69 64 58 58 61 67 62 64 58 58 56 57 58 57 55 58
49 51 56 53 57 61 70 75 77 84 84 76 71 64 65 73 82 91 86 76 66 63 60 63 58 60 55 52 57 67 67 52 46 55 52 57 61 62
58 59 59 57 52 59 65 74 77 79 81 68 66 75 72 63 60 63 78 79 75 65 68 65 65 57 53 57 68 66 59 52 52 51 54 59 66 65
63 64 64 63 66 63 65 64 71 78 81 73 70 77 74 59 70 84 97 77 60 70 61 58 63 61 55 51 53 58 59 52 47 48 49 44 45 55
Wind_Direction_850mb
226 222 222 205 223 259 313 309 328 327 347 261 287 258 265 269 307 309 310 324 337 341 338 341 351 357 357 360 6 5 0 354 350 344 344 342 337 320
217 220 231 241 271 257 244 277 291 300 304 307 320 338 309 308 311 317 318 319 338 341 331 342 345 355 355 0 6 2 360 360 356 352 352 354 359 9
210 227 225 247 245 218 241 245 262 279 282 282 282 283 291 300 310 321 327 331 335 335 340 341 338 346 346 352 355 0 2 2 1 357 357 2 6 16
225 232 235 248 246 245 247 249 248 255 283 286 276 281 293 307 307 305 323 337 351 343 336 332 330 335 338 342 344 356 357 1 2 1 1 7 8 17
265 248 248 243 247 252 244 251 254 266 270 281 289 293 289 289 292 299 318 324 329 329 321 322 319 325 332 334 335 347 354 355 4 2 2 7 10 11
244 250 252 258 263 269 268 261 250 251 259 263 274 290 300 316 302 292 291 292 318 314 310 318 324 312 316 322 327 342 350 349 356 3 2 4 10 12
228 239 249 257 260 265 271 274 268 261 272 269 281 283 300 286 301 300 300 298 292 297 298 291 292 309 323 320 321 333 340 347 349 357 2 1 7 10
242 240 236 245 252 254 263 272 255 255 258 259 266 273 273 279 286 293 295 298 303 314 307 311 319 316 318 323 307 321 327 338 344 348 358 0 4 4
250 250 252 249 257 263 273 274 268 258 260 267 269 274 281 289 295 297 298 298 298 306 314 313 328 309 302 324 317 308 314 324 335 341 346 354 360 358
243 251 253 251 243 254 266 264 269 272 268 267 272 281 285 295 297 300 301 299 299 302 311 300 315 312 317 298 308 313 311 321 327 336 336 339 349 350
250 248 250 254 258 255 255 259 263 268 276 281 279 284 289 288 287 290 288 294 295 295 294 288 287 302 299 294 301 306 303 309 313 325 332 325 331 341
255 256 258 256 256 254 255 259 260 262 265 268 269 270 275 279 282 281 283 284 289 296 308 293 281 287 299 291 294 298 306 304 306 316 325 324 315 326
252 255 261 267 270 268 263 259 262 271 272 274 275 275 275 277 278 277 276 274 275 281 300 298 297 280 278 285 288 298 301 301 298 304 310 324 309 307
261 258 248 258 262 268 273 272 272 271 269 269 269 269 265 264 269 273 276 278 280 283 288 279 278 283 288 282 278 284 292 285 290 298 299 307 314 295
264 265 265 257 248 250 254 263 263 262 263 262 263 267 270 273 275 271 261 261 268 273 273 277 282 290 287 284 290 296 285 279 284 282 286 301 306 301
257 258 255 257 258 252 251 256 258 257 254 256 259 263 267 268 268 272 269 264 257 262 267 270 271 278 279 277 279 283 286 271 268 270 283 290 291 291
273 267 275 264 260 263 261 257 256 260 259 260 262 264 266 267 265 263 257 250 253 257 259 262 265 267 273 274 273 277 281 276 271 264 266 274 281 283
284 279 275 276 269 263 268 272 269 263 256 260 265 267 268 268 273 258 252 248 249 252 256 259 259 260 266 267 269 275 278 276 276 272 263 266 271 275
285 281 280 286 281 272 267 261 258 257 262 259 252 259 265 267 268 267 250 245 248 253 257 258 257 255 255 260 271 272 279 284 281 276 273 259 259 265
281 288 294 280 287 278 268 267 269 266 260 263 263 276 245 264 252 253 256 253 252 253 255 257 257 258 254 258 258 266 269 275 272 273 265 269 272 269
283 290 294 293 281 278 273 271 273 270 267 269 274 265 245 249 257 264 261 254 253 251 252 256 256 254 248 250 259 272 279 283 282 267 269 262 266 268
292 288 292 287 277 279 279 274 275 270 268 273 284 282 272 271 277 279 281 274 252 249 245 247 248 257 261 271 282 282 284 280 282 277 270 265 266 265
291 291 288 289 286 277 270 278 277 275 262 260 278 292 290 285 291 285 279 332 284 245 250 254 262 267 272 273 276 285 286 287 289 285 281 281 278 268